Powrót do katalogu

FENGYUN 1C DEB

AktywnyPO
NORAD 30761·DEBRIS·🇨🇳 China

Wystrzelony May 10, 1999 z Taiyuan Satellite Launch Center

Loading…

Następne Przeloty (najbliższe 24 godziny)

TLE

ŚwieżeSource: Space-Track

Epoka: Sep 13, 2026, 18:42 UTC

1 30761U 99025ATX 26256.77921981  .00001150  00000-0  38956-3 0  9998
2 30761  98.9795 199.3026 0081792 225.2609 134.1899 14.36971335 16913

Śledź FENGYUN 1C DEB w czasie rzeczywistym z AllMySat

Download on the App Store